Regional Weather Roundup
Issued by NWS

Home | Current Version | Previous Version | Text Only | Print | Product List | Glossary On
Versions: 1 2 3 4 5 6 7 8 9 10 11 12 13 14 15 16 17 18 19 20 21 22 23 24 25 26 27 28 29 30 31 32 33 34 35 36 37 38 39 40 41 42 43 44 45 46 47 48 49 50
000
ASUS42 KFFC 121210
RWRGA
WEATHER ROUNDUP FOR GEORGIA
NATIONAL WEATHER SERVICE PEACHTREE CITY GA
700 AM EST TUE DEC 12 2017

NOTE: "FAIR" INDICATES FEW OR NO CLOUDS BELOW 12,000 FEET WITH NO
SIGNIFICANT WEATHER AND/OR OBSTRUCTIONS TO VISIBILITY.

* = USE WITH CAUTION. THE STATIONS MARKED WITH AN ASTERISK MAY NOT
REPORT WEATHER SUCH AS PRECIPITATION, FOG, OR THUNDER AND ARE NOT
QUALITY CONTROLLED BY NWS.

THE REMARK "TC" DENOTES TEMPERATURE READING IN DEGREES CELSIUS.

GAZ001>058-121300-
NORTH GEORGIA

CITY           SKY/WX    TMP DP  RH WIND       PRES   REMARKS
ATLANTA        MOCLDY    42  37  82 W10       29.86R
6HR MIN TEMP:  42; 6HR MAX TEMP:  48;

ATHENS         MOCLDY    38  35  89 W3        29.81F
6HR MIN TEMP:  36; 6HR MAX TEMP:  39;

CHAMBLEE       CLOUDY    38  34  85 W5        29.85R WCI  34
6HR MIN TEMP:  37; 6HR MAX TEMP:  42;

PEACHTREE CITY PTCLDY    42  37  82 W5        29.88R
6HR MIN TEMP:  34; 6HR MAX TEMP:  46;

ROME           PTCLDY    32  31  96 CALM      29.89R
6HR MIN TEMP:  30; 6HR MAX TEMP:  35;

WEST ATLANTA   CLOUDY    38  36  92 SW5       29.86R WCI  34
6HR MIN TEMP:  34; 6HR MAX TEMP:  40;

GAINESVILLE    PTCLDY    42  35  76 W12       29.81S
6HR MIN TEMP:  40; 6HR MAX TEMP:  43;

CARTERSVILLE   PTCLDY    34  34 100 CALM      29.88R
6HR MIN TEMP:  29; 6HR MAX TEMP:  34;



CITY           SKY/WX    TMP DP  RH WIND       PRES   REMARKS
DALTON*        PTCLDY    39  32  75 NW8       29.90R WCI  34
LAWRENCEVILLE* PTCLDY    41  35  79 W7        29.83R
MARIETTA       MOCLDY    38  33  82 W9        29.85R WCI  32
KENNESAW*      PTCLDY    42  33  70 W6        29.88
CANTON*        PTCLDY    41  36  81 NW10      29.85R
$$

GAZ059>098-102>109-121300-
CENTRAL GEORGIA

CITY           SKY/WX    TMP DP  RH WIND       PRES   REMARKS
AUGUSTA-BUSH   PTCLDY    45  37  73 SW10      29.83F
6HR MIN TEMP:  42; 6HR MAX TEMP:  47;

AUGUSTA-DANIEL PTCLDY    46  36  68 SW8       29.83F
6HR MIN TEMP:  45; 6HR MAX TEMP:  50;

COLUMBUS       CLEAR     37  34  89 CALM      29.91R
6HR MIN TEMP:  37; 6HR MAX TEMP:  46;

MACON          CLEAR     41  37  86 SW5       29.88S
6HR MIN TEMP:  41; 6HR MAX TEMP:  47;

ROBINS AFB     CLEAR     41  37  84 CALM      29.87F


CITY           SKY/WX    TMP DP  RH WIND       PRES   REMARKS
LAGRANGE*      CLEAR     33  32  98 CALM      29.90R
SYLVANIA*      CLEAR     43  40  90 W5        29.87F
MILLEDGEVILLE* CLEAR     39  37  93 CALM      29.86S
$$

GAZ099>101-110>166-121300-
SOUTH GEORGIA

CITY           SKY/WX    TMP DP  RH WIND       PRES   REMARKS
SAVANNAH       CLEAR     43  40  89 SW7       29.91F
6HR MIN TEMP:  42; 6HR MAX TEMP:  47;

VALDOSTA       CLEAR     47  45  93 S6        29.96F
6HR MIN TEMP:  40; 6HR MAX TEMP:  47;

ALMA           CLEAR     41  39  93 SW3       29.92F
6HR MIN TEMP:  38; 6HR MAX TEMP:  42;

ST SIMONS      CLEAR     47  45  93 SW9       29.95F
6HR MIN TEMP:  46; 6HR MAX TEMP:  48;

FT STEWART     CLEAR     41  39  90 S6        29.89F
ALBANY         CLEAR     40  39  97 SW6       29.95R
HUNTER AFB     CLEAR     44  40  85 SW8       29.88F
MOODY AFB      CLEAR     47  44  91 SW6       29.94F
BRUNSWICK      CLEAR     46  43  87 SW9       29.96F


CITY           SKY/WX    TMP DP  RH WIND       PRES   REMARKS
BAINBRIDGE*    CLEAR     50  48  93 W6        29.96R
MOULTRIE*      CLEAR     45  43  93 SW3       29.95S
VIDALIA*       CLEAR     43  41  93 SW7       29.88F
WAYCROSS*      CLEAR     45  42  90 SW7       29.94F
DOUGLAS*       CLEAR     41  41 100 SW5       29.94S
$$




USA.gov is the U.S. government's official web portal to all federal, state and local government web resources and services.